Showing default

KOYOH, 58464

Orbit data source: Space-Track

KOYOH, 58464 is a payload satellite owned by Kanazawa U (JP) in SSO that was launched on Fri, 01 Dec 2023 UTC via an FALCON 9 launch vehicle from the Air Force Western Test Range (AFWTR). Payload-class satellites include a variety of spacecraft equipped with specific instruments for various scientific and technological missions. These include communications satellites like Starlink; space stations such as the ISS; scientific satellites like the Hubble; Earth observation satellites from companies like Planet Labs, Umbra, and HawkEye 360; GPS; miniature CubeSats for education and research; and military/defense satellites.

Loading next visibility...
Identifier
58464, 2023-185C
Orbit
SSO
Country
Flag of JPJP / JPN
Related business
Manufacturer
Kanazawa U
Mission
Operational Amateur Technology
Bus & Motor
KOYOH, Unknown motor
Mass
43 kg wet, 43 kg dry
Launch date (UTC)
2023-12-01 (2 years ago)
Launch vehicle
FALCON 9
Launch site
Air Force Western Test Range (AFWTR)
Object type
Payload
Rocket body
Debris
Shape & HBR
Box, 0.3 m
Radar Cross Section
0.375 m², Medium (>0.1 m² and < 1m²)

Expand to show TLE details & history
Last TLE update: 15 hours ago

TLE from 15 hours ago
0 KOYOH
1 58464U 23185C   25261.33495981  .00006202  00000-0  34716-3 0  9998
2 58464  97.5668 330.0431 0008234 159.0458 201.1112 15.13776966 98931
Epoch: 2025-09-18T08:02Z
TLE epoch observation values (Epoch: 2025-09-18T08:02:20.527Z)
Latitude
-0.00006°
Longitude
-148.04046°
Altitude
533.075 km
Speed
7.593 km/s
True Right ascension
22h 00m 10s
True Declination
0° 00' 00"
Sunlit
Object was in full shadow at epoch
Visualization orbit readout
Latitude
Unknown
Longitude
Unknown
Altitude
Unknown
Speed
Unknown
Apparent Right ascension
Unknown
Apparent Declination
Unknown
Sunlit
N/A
Visualization observer readout
Local Sidereal Time
15:24:34
Azimuth
Unknown
Elevation
Unknown
Doppler factor
Unknown
Orbital elements
Apogee altitude
527.356 km
Perigee altitude
515.994 km
Semi-major axis
6,899.812 km
Eccentricity
0.00082
Inclination
97.5668°
RAAN
330.0431°
Arg. of periapsis
159.0458°
True anomaly
201.07725°
Mean anomaly
201.1112°
Eccentric anomaly
201.09422°
Mean motion
3.78693 °/min
Orbital period
95.06 mins
BSTAR
0.00034716
Loading maneuver chart data...
Computing Atmospheric mass density...
Loading historical data...
Loading historical data...
Loading historical data...
Loading historical data...
Loading historical data...
Loading historical data...
Loading historical data...

Documentation

Showing up to 5 results
|